Regional Weather Roundup
Issued by NWS Kansas City/Pleasant Hill, MO

Home | Current Version | Previous Version | Graphics & Text | Print | Product List | Glossary Off
Versions: 1 2 3 4 5 6 7 8 9 10 11 12 13 14 15 16 17 18 19 20 21 22 23 24 25 26 27

000
ASUS43 KEAX 060210
RWREAX

WEATHER ROUNDUP FOR EASTERN KANSAS AND NORTHWEST MISSOURI
NATIONAL WEATHER SERVICE KANSAS CITY/PLEASANT HILL MO
900 PM CDT THU MAY 05 2016

KSZ040-057-103>105-MOZ028-029-037-043-060300-
...KANSAS CITY METROPOLITAN AREA...

CITY           SKY/WX    TMP DP  RH WIND       PRES   REMARKS
K.C. INTL      PTCLDY    65  37  35 E5        30.03R
K.C. DOWNTOWN  CLEAR     68  37  32 NE3       30.02R
LEES SUMMIT    CLEAR     65  36  34 CALM      30.03S
OLATHE - IXD   CLEAR     64  40  41 NE6       30.04R
OLATHE - OJC   CLEAR     65  37  35 CALM      30.03R
LAWRENCE       CLEAR     57  48  72 E3        30.03R

$$

MOZ001>008-011>017-020>025-030>033-038>040-044>046-053-054-060300-
...NORTHERN AND CENTRAL MISSOURI...

CITY           SKY/WX    TMP DP  RH WIND       PRES   REMARKS
ST. JOSEPH     CLEAR     62  44  51 S6        30.02S
MOSBY          CLEAR     61  43  51 CALM      30.03R
WARRENSBURG    CLEAR     63  34  34 CALM      30.03R
WHITEMAN AFB   CLEAR     59  39  47 CALM      30.02R
CLINTON        CLEAR     57  41  54 CALM      30.03S
SEDALIA        CLEAR     63  33  32 CALM      30.04R
WARSAW         NOT AVBL
CHILLICOTHE      N/A     56  47  71 CALM      30.04R
KIRKSVILLE     CLEAR     52  41  66 CALM      30.04R

$$

MOZ041-047>049-056>058-063>065-088>090-097-060300-
...EASTERN AND SOUTHERN MISSOURI...

CITY           SKY/WX    TMP DP  RH WIND       PRES   REMARKS
ST. LOUIS INTL PTCLDY    62  43  49 NW3       30.01S
SPIRIT OF STL  PTCLDY    55  48  77 CALM      30.01R
COLUMBIA       CLEAR     59  40  49 CALM      30.03R
JEFFERSON CITY CLEAR     58  42  55 CALM      30.02R
ROLLA          CLEAR     54  39  57 CALM      30.01R
OSAGE BEACH    CLEAR     54  34  47 N3        30.03S
SPRINGFIELD    CLEAR     61  33  35 NW3       30.03R
BRANSON        PTCLDY    61  37  41 CALM      30.04R
JOPLIN         CLEAR     61  44  53 NE5       30.03R
WEST PLAINS    CLEAR     58  33  39 N5        30.03R

$$

IAZ060-094-KSZ022-034>040-054-083-096-NEZ052-066-093-060300-
...KANSAS...SOUTHEAST NEBRASKA AND IOWA...

CITY           SKY/WX    TMP DP  RH WIND       PRES   REMARKS
TOPEKA         CLEAR     65  49  56 CALM      30.02R
MANHATTAN      CLEAR     63  45  51 CALM      30.01R
EMPORIA        CLEAR     65  45  48 E6        30.02R
CHANUTE        CLEAR     59  46  62 CALM      30.02R
WICHITA        PTCLDY    70  46  42 CALM      30.02R
OMAHA          MOCLDY    66  46  48 SE6       29.99S
LINCOLN        CLEAR     66  44  45 SE6       30.00R
FALLS CITY     CLEAR     66  41  40 SE5       30.01R
LAMONI         CLEAR     63  39  41 SW5       30.02R
DES MOINES     PTCLDY    64  37  36 S7        30.00S

$$





USA.gov is the U.S. government's official web portal to all federal, state and local government web resources and services.